Weather in Krasnoye

Russia / Nenets Autonomous Okrug     67°50′07″N   53°36′05″E
temp.,
°C
wind,
m/s
gust,
m/s
humid.,
%
clouds,
%
prec.,
mm/h
press.,
hPa
HPBL,
m
1 march, mon
mon100:00−13ssw61095100 0.1 1005199
03:00−10s81394100 0.2 1002299
06:00−8s91493100 0.9 997418
09:00−5ssw101694100 1.4 993653
12:00−4ssw101594100 1.6 988770
15:00−3ssw111794100 2.9 985679
18:000w71398100 1.6 982672
21:000w61195100 1.9 983509
2 march, tue
tue200:00−2wsw6995100 0.1 983242
03:00−3sw5996100 0.5 984230
06:00−3sw589598 0.1 984225
09:00−5sw479699 0.1 985150
12:00−5sw359696 0.1 986194
15:00−5w229796 0.5 98743
18:00−7nw2391100 0.3 98831
21:00−11wnw118991 0.3 98821
3 march, wed
wed300:00−13nnw019266 0.0 98821
03:00−14ne229553 0.0 98920
06:00−14nne449689 0.0 98975
09:00−15nne479694 0.1 991202
12:00−14n469497 0.1 991265
15:00−14nnw469599 0.2 992280
18:00−15nnw349696 0.1 99280
21:00−15nw229795 0.2 99222
4 march, thu
thu400:00−14nne229699 0.2 99225
03:00−15ne599598 0.3 993228
06:00−16ne599599 0.1 993266
09:00−17ne6994100 0.2 994350
12:00−18ne61094100 0.1 995357
15:00−18nne51095100 0.1 996296
18:00−20nne489999 0.0 996144
21:00−20nne51098100 0.1 997228
5 march, fri
fri500:00−23nne5998100 0.0 997184
03:00−24n5799100 0.1 998122
06:00−24n479998 0.0 998126
09:00−21n599699 0.1 999292
12:00−20n589499 0.1 1000468
15:00−20nnw5895100 0.1 1001438
18:00−22nnw479898 0.1 1002138
21:00−22nnw599798 0.2 1003259